This is the latest recevied weather packets stored in our database for station/object DM3FAM-13. If no packets are shown the sender has not sent any weather packets the latest 1 day(s).
| Time | Temp. | Humidity | Pressure | Rain* | Wind** | Luminosity | Snow |
|---|---|---|---|---|---|---|---|
| 1778035231 | 10° C | 98% | 1008 hPa | 0 mm | - | 0 W/m² | - |
| 1778033430 | 9.44° C | 98% | 1008.1 hPa | 0 mm | - | 0 W/m² | - |
| 1778032230 | 8.89° C | 98% | 1008.5 hPa | 0 mm | - | 0 W/m² | - |
| 1778031631 | 8.89° C | 98% | 1008.4 hPa | 0 mm | - | 0 W/m² | - |
| 1778030430 | 8.33° C | 98% | 1008.8 hPa | 0 mm | - | 0 W/m² | - |
| 1778029830 | 8.33° C | 98% | 1008.7 hPa | 0 mm | - | 0 W/m² | - |
| 1778029231 | 8.33° C | 98% | 1008.6 hPa | 0 mm | - | 0 W/m² | - |
| 1778028630 | 8.33° C | 98% | 1008.5 hPa | 0 mm | - | 0 W/m² | - |
| 1778028030 | 8.33° C | 98% | 1008.6 hPa | 0 mm | - | 0 W/m² | - |
| 1778027430 | 8.33° C | 98% | 1008.8 hPa | 0 mm | - | 0 W/m² | - |
| 1778026830 | 8.33° C | 98% | 1008.9 hPa | 0 mm | - | 0 W/m² | - |
| 1778025631 | 8.33° C | 98% | 1009.1 hPa | 0 mm | - | 0 W/m² | - |
| 1778021431 | 8.33° C | 98% | 1009.5 hPa | 0 mm | - | 0 W/m² | - |
| 1778020231 | 8.33° C | 97% | 1009.5 hPa | 0 mm | - | 0 W/m² | - |
| 1778013631 | 11.11° C | 97% | 1009.7 hPa | 0 mm | - | 0 W/m² | - |
| 1778011231 | 10.56° C | 96% | 1009.2 hPa | 0 mm | - | 0 W/m² | - |
| 1778010031 | 11.11° C | 95% | 1009 hPa | 0 mm | - | 0 W/m² | - |
| 1778007631 | 12.22° C | 94% | 1008.9 hPa | 0.51 mm | - | 0 W/m² | - |
| 1778005831 | 13.33° C | 91% | 1008.8 hPa | 0.51 mm | - | 1 W/m² | - |
| 1778004631 | 13.33° C | 91% | 1008.7 hPa | 0 mm | - | 5 W/m² | - |
| 1778002230 | 13.89° C | 90% | 1008.4 hPa | 0 mm | - | 49 W/m² | - |
| 1778001630 | 14.44° C | 90% | 1008.3 hPa | 0 mm | - | 55 W/m² | - |
| 1778001030 | 14.44° C | 90% | 1008.2 hPa | 0 mm | - | 43 W/m² | - |
* Rain latest hour (hover to see other rain measurements)
** Current wind speed in m/s (hover to see current wind gust speed)